Time,TemperatureF,DewpointF,PressureIn,WindDirection,WindDirectionDegrees,WindSpeedMPH,WindSpeedGustMPH,Humidity,HourlyPrecipIn,Conditions,Clouds,dailyrainin,SolarRadiationWatts/m^2,SoftwareType,DateUTC
2013-11-23 00:01:00,40.6,35.2,30.43,NNE,14,6.0,8.0,81,0.00,,,0.01,0.0,meteohub,2013-11-23 05:01:00,
2013-11-23 00:02:00,40.5,35.1,30.43,NNW,331,4.0,8.0,81,0.00,,,0.01,0.0,meteohub,2013-11-23 05:02:00,
2013-11-23 00:03:00,40.5,35.1,30.43,NNE,14,3.0,8.0,81,0.00,,,0.01,0.0,meteohub,2013-11-23 05:03:00,
2013-11-23 00:04:00,40.5,35.1,30.43,NNE,25,6.0,8.0,81,0.00,,,0.01,0.0,meteohub,2013-11-23 05:04:00,
2013-11-23 00:06:00,40.5,35.1,30.43,NNE,17,2.0,11.0,81,0.00,,,0.01,0.0,meteohub,2013-11-23 05:06:00,
2013-11-23 00:11:00,40.5,35.1,30.44,North,359,3.0,12.0,81,0.00,,,0.01,0.0,meteohub,2013-11-23 05:11:00,
2013-11-23 00:16:00,40.5,35.1,30.43,North,7,6.0,12.0,81,0.00,,,0.01,0.0,meteohub,2013-11-23 05:16:00,
2013-11-23 00:21:00,40.5,35.1,30.43,North,353,4.0,12.0,81,0.00,,,0.01,0.0,meteohub,2013-11-23 05:21:00,
2013-11-23 00:26:00,40.3,34.9,30.43,NNW,343,2.0,9.0,81,0.00,,,0.01,0.0,meteohub,2013-11-23 05:26:00,
2013-11-23 00:31:00,40.3,34.9,30.43,NNE,32,3.0,10.0,81,0.00,,,0.01,0.0,meteohub,2013-11-23 05:31:00,
2013-11-23 00:36:00,40.3,34.9,30.43,NNE,26,3.0,10.0,81,0.00,,,0.01,0.0,meteohub,2013-11-23 05:36:00,
2013-11-23 00:41:00,40.1,35.1,30.43,NNE,32,4.0,10.0,82,0.00,,,0.01,0.0,meteohub,2013-11-23 05:41:00,
2013-11-23 00:46:00,39.9,34.9,30.43,North,4,3.0,7.0,82,0.00,,,0.01,0.0,meteohub,2013-11-23 05:46:00,
2013-11-23 00:52:00,39.9,34.9,30.43,NNE,28,4.0,7.0,82,0.00,,,0.01,0.0,meteohub,2013-11-23 05:52:00,
2013-11-23 00:57:00,39.7,34.7,30.43,NNE,15,1.0,7.0,82,0.00,,,0.01,0.0,meteohub,2013-11-23 05:57:00,
2013-11-23 01:02:00,39.7,35.1,30.43,North,9,5.0,7.0,83,0.00,,,0.01,0.0,meteohub,2013-11-23 06:02:00,
2013-11-23 01:07:00,39.6,34.9,30.43,North,9,2.0,7.0,83,0.00,,,0.01,0.0,meteohub,2013-11-23 06:07:00,
2013-11-23 01:12:00,39.6,35.1,30.42,North,3,2.0,6.0,84,0.00,,,0.01,0.0,meteohub,2013-11-23 06:12:00,
2013-11-23 01:17:00,39.6,34.9,30.43,North,352,6.0,6.0,83,0.00,,,0.01,0.0,meteohub,2013-11-23 06:17:00,
2013-11-23 01:22:00,39.7,35.1,30.43,NNE,19,4.0,8.0,83,0.00,,,0.01,0.0,meteohub,2013-11-23 06:22:00,
2013-11-23 01:27:00,39.7,35.1,30.43,North,6,3.0,8.0,83,0.00,,,0.01,0.0,meteohub,2013-11-23 06:27:00,
2013-11-23 01:32:00,39.7,35.1,30.43,NNW,346,1.0,8.0,83,0.00,,,0.01,0.0,meteohub,2013-11-23 06:32:00,
2013-11-23 01:37:00,39.7,35.1,30.43,North,350,0.0,7.0,83,0.00,,,0.01,0.0,meteohub,2013-11-23 06:37:00,
2013-11-23 01:42:00,39.6,34.9,30.43,North,9,4.0,7.0,83,0.00,,,0.01,0.0,meteohub,2013-11-23 06:42:00,
2013-11-23 01:47:00,39.6,34.9,30.44,NE,42,1.0,7.0,83,0.00,,,0.01,0.0,meteohub,2013-11-23 06:47:00,
2013-11-23 01:52:00,39.4,34.7,30.43,NNE,25,1.0,6.0,83,0.00,,,0.01,0.0,meteohub,2013-11-23 06:52:00,
2013-11-23 01:57:00,39.4,34.7,30.44,North,0,4.0,5.0,83,0.00,,,0.01,0.0,meteohub,2013-11-23 06:57:00,
2013-11-23 02:02:00,39.2,34.7,30.44,North,9,1.0,5.0,84,0.00,,,0.01,0.0,meteohub,2013-11-23 07:02:00,
2013-11-23 02:07:00,39.0,34.3,30.44,NE,48,6.0,6.0,83,0.00,,,0.01,0.0,meteohub,2013-11-23 07:07:00,
2013-11-23 02:12:00,38.8,34.2,30.44,North,9,7.0,7.0,83,0.00,,,0.01,0.0,meteohub,2013-11-23 07:12:00,
2013-11-23 02:17:00,38.7,33.6,30.44,NNW,328,2.0,8.0,82,0.00,,,0.01,0.0,meteohub,2013-11-23 07:17:00,
2013-11-23 02:22:00,38.3,33.3,30.44,North,0,2.0,8.0,82,0.00,,,0.01,0.0,meteohub,2013-11-23 07:22:00,
2013-11-23 02:27:00,38.1,33.1,30.44,NE,34,2.0,8.0,82,0.00,,,0.01,0.0,meteohub,2013-11-23 07:27:00,
2013-11-23 02:32:00,37.9,32.9,30.45,North,7,2.0,7.0,82,0.00,,,0.01,0.0,meteohub,2013-11-23 07:32:00,
2013-11-23 02:37:00,37.8,33.1,30.44,North,349,1.0,6.0,83,0.00,,,0.01,0.0,meteohub,2013-11-23 07:37:00,
2013-11-23 02:42:00,37.6,32.9,30.45,NW,306,1.0,5.0,83,0.00,,,0.01,0.0,meteohub,2013-11-23 07:42:00,
2013-11-23 02:47:00,37.2,32.9,30.45,NNW,347,3.0,4.0,84,0.00,,,0.01,0.0,meteohub,2013-11-23 07:47:00,
2013-11-23 02:52:00,37.0,32.7,30.45,NW,311,1.0,4.0,84,0.00,,,0.01,0.0,meteohub,2013-11-23 07:52:00,
2013-11-23 02:57:00,37.0,32.7,30.44,NNW,336,2.0,5.0,84,0.00,,,0.01,0.0,meteohub,2013-11-23 07:57:00,
2013-11-23 03:02:00,37.0,32.7,30.44,NNW,347,1.0,6.0,84,0.00,,,0.01,0.0,meteohub,2013-11-23 08:02:00,
2013-11-23 03:07:00,37.0,32.7,30.44,NNW,338,3.0,6.0,84,0.00,,,0.01,0.0,meteohub,2013-11-23 08:07:00,
2013-11-23 03:12:00,37.0,32.7,30.44,NNW,332,0.0,6.0,84,0.00,,,0.01,0.0,meteohub,2013-11-23 08:12:00,
2013-11-23 03:17:00,36.9,32.7,30.45,NW,325,3.0,5.0,85,0.00,,,0.01,0.0,meteohub,2013-11-23 08:17:00,
2013-11-23 03:22:00,36.9,32.7,30.44,NE,53,3.0,4.0,85,0.00,,,0.01,0.0,meteohub,2013-11-23 08:22:00,
2013-11-23 03:27:00,36.9,32.7,30.45,WNW,302,2.0,5.0,85,0.00,,,0.01,0.0,meteohub,2013-11-23 08:27:00,
2013-11-23 03:32:00,36.9,32.7,30.44,NW,321,2.0,5.0,85,0.00,,,0.01,0.0,meteohub,2013-11-23 08:32:00,
2013-11-23 03:37:00,36.9,32.7,30.45,NW,318,3.0,5.0,85,0.00,,,0.01,0.0,meteohub,2013-11-23 08:37:00,
2013-11-23 03:42:00,36.9,32.7,30.44,NW,308,0.0,3.0,85,0.00,,,0.01,0.0,meteohub,2013-11-23 08:42:00,
2013-11-23 03:47:00,36.9,32.7,30.44,NW,317,1.0,5.0,85,0.00,,,0.01,0.0,meteohub,2013-11-23 08:47:00,
2013-11-23 03:52:00,36.9,32.7,30.44,NW,322,0.0,5.0,85,0.00,,,0.01,0.0,meteohub,2013-11-23 08:52:00,
2013-11-23 03:57:00,36.9,32.7,30.44,North,355,1.0,5.0,85,0.00,,,0.01,0.0,meteohub,2013-11-23 08:57:00,
2013-11-23 04:02:00,36.9,32.7,30.44,NNW,331,2.0,5.0,85,0.00,,,0.01,0.0,meteohub,2013-11-23 09:02:00,
2013-11-23 04:07:00,36.9,32.7,30.44,NW,325,0.0,5.0,85,0.00,,,0.01,0.0,meteohub,2013-11-23 09:07:00,
2013-11-23 04:12:00,36.9,32.7,30.44,NNW,333,2.0,5.0,85,0.00,,,0.01,0.0,meteohub,2013-11-23 09:12:00,
2013-11-23 04:18:00,36.7,32.5,30.45,NW,323,1.0,4.0,85,0.00,,,0.01,0.0,meteohub,2013-11-23 09:18:00,
2013-11-23 04:23:00,36.3,32.5,30.45,NW,311,0.0,3.0,86,0.00,,,0.01,0.0,meteohub,2013-11-23 09:23:00,
2013-11-23 04:28:00,36.1,32.4,30.45,NW,311,1.0,3.0,86,0.00,,,0.01,0.0,meteohub,2013-11-23 09:28:00,
2013-11-23 04:33:00,36.0,32.2,30.45,NNW,327,2.0,3.0,86,0.00,,,0.01,0.0,meteohub,2013-11-23 09:33:00,
2013-11-23 04:38:00,35.6,32.2,30.45,NW,313,1.0,3.0,87,0.00,,,0.01,0.0,meteohub,2013-11-23 09:38:00,
2013-11-23 04:43:00,35.4,32.0,30.45,NNW,330,2.0,3.0,87,0.00,,,0.01,0.0,meteohub,2013-11-23 09:43:00,
2013-11-23 04:48:00,35.2,31.8,30.45,North,354,4.0,4.0,87,0.00,,,0.01,0.0,meteohub,2013-11-23 09:48:00,
2013-11-23 04:53:00,35.1,31.6,30.46,NNW,336,2.0,4.0,87,0.00,,,0.01,0.0,meteohub,2013-11-23 09:53:00,
2013-11-23 04:58:00,34.9,31.5,30.46,NNW,347,1.0,4.0,87,0.00,,,0.01,0.0,meteohub,2013-11-23 09:58:00,
2013-11-23 05:03:00,34.7,31.3,30.46,NNW,348,3.0,4.0,87,0.00,,,0.01,0.0,meteohub,2013-11-23 10:03:00,
2013-11-23 05:08:00,34.5,31.3,30.46,NNW,336,2.0,4.0,88,0.00,,,0.01,0.0,meteohub,2013-11-23 10:08:00,
2013-11-23 05:13:00,34.3,31.1,30.46,NW,325,2.0,5.0,88,0.00,,,0.01,0.0,meteohub,2013-11-23 10:13:00,
2013-11-23 05:18:00,34.2,30.9,30.46,NNW,347,4.0,5.0,88,0.00,,,0.01,0.0,meteohub,2013-11-23 10:18:00,
2013-11-23 05:24:00,34.0,30.7,30.46,NNW,336,2.0,5.0,88,0.00,,,0.01,0.0,meteohub,2013-11-23 10:24:00,
2013-11-23 05:29:00,34.0,30.7,30.46,NNW,348,1.0,4.0,88,0.00,,,0.01,0.0,meteohub,2013-11-23 10:29:00,
2013-11-23 05:34:00,33.8,30.6,30.46,NNW,345,2.0,4.0,88,0.00,,,0.01,0.0,meteohub,2013-11-23 10:34:00,
2013-11-23 05:39:00,33.6,30.7,30.47,NNW,348,2.0,5.0,89,0.00,,,0.01,0.0,meteohub,2013-11-23 10:39:00,
2013-11-23 05:44:00,33.4,30.6,30.48,NNW,346,2.0,5.0,89,0.00,,,0.01,0.0,meteohub,2013-11-23 10:44:00,
2013-11-23 05:49:00,33.4,30.6,30.47,NNE,14,1.0,5.0,89,0.00,,,0.01,0.0,meteohub,2013-11-23 10:49:00,
2013-11-23 05:54:00,33.4,30.6,30.47,North,352,1.0,4.0,89,0.00,,,0.01,0.0,meteohub,2013-11-23 10:54:00,
2013-11-23 05:59:00,33.4,30.6,30.47,NNW,336,0.0,3.0,89,0.00,,,0.01,0.0,meteohub,2013-11-23 10:59:00,
2013-11-23 06:04:00,33.4,30.6,30.48,North,352,1.0,4.0,89,0.00,,,0.01,0.0,meteohub,2013-11-23 11:04:00,
2013-11-23 06:09:00,33.3,30.0,30.48,North,350,0.0,4.0,88,0.00,,,0.01,0.0,meteohub,2013-11-23 11:09:00,
2013-11-23 06:14:00,33.1,30.2,30.48,North,350,1.0,4.0,89,0.00,,,0.01,0.0,meteohub,2013-11-23 11:14:00,
2013-11-23 06:19:00,32.7,29.8,30.48,North,350,0.0,4.0,89,0.00,,,0.01,0.0,meteohub,2013-11-23 11:19:00,
2013-11-23 06:24:00,32.5,30.0,30.48,North,350,0.0,2.0,90,0.00,,,0.01,0.0,meteohub,2013-11-23 11:24:00,
2013-11-23 06:29:00,32.2,29.7,30.49,North,350,0.0,2.0,90,0.00,,,0.01,0.0,meteohub,2013-11-23 11:29:00,
2013-11-23 06:34:00,32.0,29.1,30.48,North,350,0.0,1.0,89,0.00,,,0.01,0.0,meteohub,2013-11-23 11:34:00,
2013-11-23 06:40:00,31.6,29.1,30.48,North,350,0.0,1.0,90,0.00,,,0.01,0.0,meteohub,2013-11-23 11:40:00,
2013-11-23 06:45:00,31.3,28.8,30.48,North,350,0.0,1.0,90,0.00,,,0.01,0.0,meteohub,2013-11-23 11:45:00,
2013-11-23 06:50:00,30.9,28.6,30.48,North,350,0.0,1.0,91,0.00,,,0.01,0.0,meteohub,2013-11-23 11:50:00,
2013-11-23 06:55:00,30.6,28.2,30.49,North,350,0.0,0.0,91,0.00,,,0.01,0.0,meteohub,2013-11-23 11:55:00,
2013-11-23 07:00:00,30.4,28.4,30.49,North,350,0.0,0.0,92,0.00,,,0.01,0.0,meteohub,2013-11-23 12:00:00,
2013-11-23 07:05:00,30.2,28.4,30.49,North,350,0.0,1.0,93,0.00,,,0.01,0.0,meteohub,2013-11-23 12:05:00,
2013-11-23 07:10:00,30.0,28.2,30.50,North,350,0.0,2.0,93,0.00,,,0.01,0.0,meteohub,2013-11-23 12:10:00,
2013-11-23 07:15:00,30.0,28.2,30.49,North,350,0.0,2.0,93,0.00,,,0.01,0.0,meteohub,2013-11-23 12:15:00,
2013-11-23 07:20:00,30.0,28.2,30.50,North,350,0.0,2.0,93,0.00,,,0.01,0.0,meteohub,2013-11-23 12:20:00,
2013-11-23 07:25:00,30.0,28.6,30.50,North,351,1.0,2.0,94,0.00,,,0.01,0.0,meteohub,2013-11-23 12:25:00,
2013-11-23 07:30:00,30.0,28.6,30.49,NNW,348,1.0,4.0,94,0.00,,,0.01,0.0,meteohub,2013-11-23 12:30:00,
2013-11-23 07:35:00,30.6,29.1,30.50,North,352,3.0,7.0,94,0.00,,,0.01,7.0,meteohub,2013-11-23 12:35:00,
2013-11-23 07:40:00,31.1,29.3,30.50,NNW,344,4.0,8.0,93,0.00,,,0.01,11.0,meteohub,2013-11-23 12:40:00,
2013-11-23 07:45:00,31.8,29.8,30.50,NNE,17,2.0,8.0,92,0.00,,,0.01,18.0,meteohub,2013-11-23 12:45:00,
2013-11-23 07:50:00,32.4,29.8,30.51,WNW,303,0.0,8.0,90,0.00,,,0.01,26.0,meteohub,2013-11-23 12:50:00,
2013-11-23 07:55:00,32.5,30.0,30.51,NNW,344,1.0,8.0,90,0.00,,,0.01,28.0,meteohub,2013-11-23 12:55:00,
2013-11-23 08:00:00,32.9,30.0,30.51,NNW,341,5.0,8.0,89,0.00,,,0.01,35.0,meteohub,2013-11-23 13:00:00,
2013-11-23 08:06:00,33.1,29.8,30.51,North,1,2.0,8.0,88,0.00,,,0.01,23.0,meteohub,2013-11-23 13:06:00,
2013-11-23 08:11:00,33.3,30.0,30.51,NW,322,5.0,7.0,88,0.00,,,0.01,25.0,meteohub,2013-11-23 13:11:00,
2013-11-23 08:16:00,33.4,30.2,30.51,NNW,342,2.0,9.0,88,0.00,,,0.01,53.0,meteohub,2013-11-23 13:16:00,
2013-11-23 08:21:00,33.4,30.2,30.51,North,1,1.0,9.0,88,0.00,,,0.01,44.0,meteohub,2013-11-23 13:21:00,
2013-11-23 08:26:00,33.4,30.2,30.51,NNW,332,1.0,9.0,88,0.00,,,0.01,49.0,meteohub,2013-11-23 13:26:00,
2013-11-23 08:31:00,33.4,30.6,30.51,North,356,4.0,7.0,89,0.00,,,0.01,105.0,meteohub,2013-11-23 13:31:00,
2013-11-23 08:36:00,33.8,30.9,30.51,WNW,298,1.0,5.0,89,0.00,,,0.01,130.0,meteohub,2013-11-23 13:36:00,
2013-11-23 08:41:00,34.0,30.7,30.51,WNW,299,3.0,6.0,88,0.00,,,0.01,63.0,meteohub,2013-11-23 13:41:00,
2013-11-23 08:46:00,34.0,30.7,30.52,NW,325,1.0,7.0,88,0.00,,,0.01,63.0,meteohub,2013-11-23 13:46:00,
2013-11-23 08:51:00,34.0,30.7,30.52,North,355,4.0,7.0,88,0.00,,,0.01,62.0,meteohub,2013-11-23 13:51:00,
2013-11-23 08:56:00,33.6,30.2,30.52,North,9,3.0,8.0,87,0.00,,,0.01,56.0,meteohub,2013-11-23 13:56:00,
2013-11-23 09:01:00,33.4,30.2,30.52,WNW,290,5.0,8.0,88,0.00,,,0.01,81.0,meteohub,2013-11-23 14:01:00,
2013-11-23 09:07:00,33.6,30.4,30.52,NNW,336,1.0,8.0,88,0.00,,,0.01,104.0,meteohub,2013-11-23 14:07:00,
2013-11-23 09:12:00,33.8,30.6,30.52,NW,319,2.0,7.0,88,0.00,,,0.01,200.0,meteohub,2013-11-23 14:12:00,
2013-11-23 09:17:00,34.0,30.7,30.53,NW,319,5.0,8.0,88,0.00,,,0.01,46.0,meteohub,2013-11-23 14:17:00,
2013-11-23 09:22:00,34.0,30.7,30.53,NW,315,4.0,10.0,88,0.00,,,0.01,116.0,meteohub,2013-11-23 14:22:00,
2013-11-23 09:27:00,33.6,30.4,30.53,NNW,344,4.0,10.0,88,0.00,,,0.01,70.0,meteohub,2013-11-23 14:27:00,
2013-11-23 09:32:00,33.6,30.4,30.53,NNE,15,3.0,10.0,88,0.00,,,0.01,84.0,meteohub,2013-11-23 14:32:00,
2013-11-23 09:37:00,33.6,30.4,30.53,NNW,347,5.0,9.0,88,0.00,,,0.01,25.0,meteohub,2013-11-23 14:37:00,
2013-11-23 09:42:00,33.4,30.2,30.54,NNW,336,2.0,9.0,88,0.00,,,0.01,62.0,meteohub,2013-11-23 14:42:00,
2013-11-23 09:47:00,33.4,30.6,30.54,NNW,342,3.0,9.0,89,0.00,,,0.01,83.0,meteohub,2013-11-23 14:47:00,
2013-11-23 09:52:00,33.4,30.2,30.53,NNW,336,6.0,9.0,88,0.00,,,0.01,141.0,meteohub,2013-11-23 14:52:00,
2013-11-23 09:57:00,33.6,30.2,30.53,NNW,329,3.0,9.0,87,0.00,,,0.01,81.0,meteohub,2013-11-23 14:57:00,
2013-11-23 10:02:00,34.0,30.6,30.53,NNE,12,3.0,8.0,87,0.00,,,0.01,97.0,meteohub,2013-11-23 15:02:00,
2013-11-23 10:07:00,34.2,30.7,30.53,NNW,333,3.0,8.0,87,0.00,,,0.01,93.0,meteohub,2013-11-23 15:07:00,
2013-11-23 10:12:00,34.2,30.7,30.53,WNW,298,2.0,7.0,87,0.00,,,0.01,176.0,meteohub,2013-11-23 15:12:00,
2013-11-23 10:17:00,34.3,30.6,30.53,NNW,348,2.0,5.0,86,0.00,,,0.01,141.0,meteohub,2013-11-23 15:17:00,
2013-11-23 10:23:00,34.7,30.9,30.51,NW,308,2.0,9.0,86,0.00,,,0.01,165.0,meteohub,2013-11-23 15:23:00,
2013-11-23 10:28:00,34.9,31.1,30.52,NW,324,7.0,11.0,86,0.00,,,0.01,248.0,meteohub,2013-11-23 15:28:00,
2013-11-23 10:33:00,35.2,31.5,30.53,North,359,4.0,11.0,86,0.00,,,0.01,181.0,meteohub,2013-11-23 15:33:00,
2013-11-23 10:38:00,35.6,31.8,30.53,WNW,292,3.0,11.0,86,0.00,,,0.01,313.0,meteohub,2013-11-23 15:38:00,
2013-11-23 10:43:00,36.3,32.2,30.52,NW,310,6.0,8.0,85,0.00,,,0.01,313.0,meteohub,2013-11-23 15:43:00,
2013-11-23 10:48:00,36.7,32.0,30.52,NNW,330,4.0,8.0,83,0.00,,,0.01,322.0,meteohub,2013-11-23 15:48:00,
2013-11-23 10:53:00,36.7,31.6,30.52,North,352,2.0,8.0,82,0.00,,,0.01,276.0,meteohub,2013-11-23 15:53:00,
2013-11-23 10:58:00,36.5,31.3,30.52,NW,304,5.0,10.0,81,0.00,,,0.01,429.0,meteohub,2013-11-23 15:58:00,
2013-11-23 11:03:00,36.7,31.5,30.53,WNW,300,9.0,11.0,81,0.00,,,0.01,304.0,meteohub,2013-11-23 16:03:00,
2013-11-23 11:09:00,37.0,32.4,30.52,NNW,328,4.0,11.0,83,0.00,,,0.01,287.0,meteohub,2013-11-23 16:09:00,
2013-11-23 11:14:00,37.6,32.5,30.51,NW,307,6.0,11.0,82,0.00,,,0.01,355.0,meteohub,2013-11-23 16:14:00,
2013-11-23 11:19:00,38.3,32.4,30.51,NW,307,5.0,11.0,79,0.00,,,0.01,374.0,meteohub,2013-11-23 16:19:00,
2013-11-23 11:24:00,38.8,32.2,30.51,NW,317,7.0,9.0,77,0.00,,,0.01,624.0,meteohub,2013-11-23 16:24:00,
2013-11-23 11:29:00,39.4,32.7,30.51,West,267,4.0,14.0,77,0.00,,,0.01,174.0,meteohub,2013-11-23 16:29:00,
2013-11-23 11:34:00,38.5,31.6,30.51,WNW,282,7.0,14.0,76,0.00,,,0.01,415.0,meteohub,2013-11-23 16:34:00,
2013-11-23 11:39:00,38.8,31.3,30.50,NW,311,5.0,14.0,74,0.00,,,0.01,410.0,meteohub,2013-11-23 16:39:00,
2013-11-23 11:44:00,39.6,31.6,30.49,WNW,302,0.0,13.0,73,0.00,,,0.01,610.0,meteohub,2013-11-23 16:44:00,
2013-11-23 11:49:00,40.3,32.0,30.49,West,261,3.0,10.0,72,0.00,,,0.01,399.0,meteohub,2013-11-23 16:49:00,
2013-11-23 11:54:00,39.9,31.6,30.48,NW,323,4.0,11.0,72,0.00,,,0.01,350.0,meteohub,2013-11-23 16:54:00,
2013-11-23 11:59:00,39.6,31.3,30.49,WNW,286,5.0,13.0,72,0.00,,,0.01,357.0,meteohub,2013-11-23 16:59:00,
2013-11-23 12:04:00,39.9,31.3,30.49,WNW,282,7.0,13.0,71,0.00,,,0.01,417.0,meteohub,2013-11-23 17:04:00,
2013-11-23 12:09:00,40.1,29.7,30.48,West,264,5.0,13.0,66,0.00,,,0.01,438.0,meteohub,2013-11-23 17:09:00,
2013-11-23 12:15:00,41.5,30.7,30.48,NW,321,8.0,11.0,65,0.00,,,0.01,708.0,meteohub,2013-11-23 17:15:00,
2013-11-23 12:20:00,42.1,31.1,30.47,NNE,19,5.0,14.0,65,0.00,,,0.01,348.0,meteohub,2013-11-23 17:20:00,
2013-11-23 12:25:00,41.5,29.1,30.47,West,273,7.0,14.0,61,0.00,,,0.01,248.0,meteohub,2013-11-23 17:25:00,
2013-11-23 12:30:00,40.3,27.1,30.47,West,275,4.0,14.0,59,0.00,,,0.01,345.0,meteohub,2013-11-23 17:30:00,
2013-11-23 12:35:00,40.6,23.0,30.46,NW,311,9.0,13.0,49,0.00,,,0.01,353.0,meteohub,2013-11-23 17:35:00,
2013-11-23 12:40:00,40.6,23.0,30.46,NW,316,5.0,15.0,49,0.00,,,0.01,311.0,meteohub,2013-11-23 17:40:00,
2013-11-23 12:45:00,40.5,22.3,30.45,WNW,296,6.0,15.0,48,0.00,,,0.01,338.0,meteohub,2013-11-23 17:45:00,
2013-11-23 12:50:00,40.8,23.2,30.45,WNW,294,8.0,15.0,49,0.00,,,0.01,332.0,meteohub,2013-11-23 17:50:00,
2013-11-23 12:55:00,41.0,24.3,30.45,WNW,293,7.0,11.0,51,0.00,,,0.01,376.0,meteohub,2013-11-23 17:55:00,
2013-11-23 13:00:00,41.4,27.3,30.45,West,262,4.0,13.0,57,0.00,,,0.01,459.0,meteohub,2013-11-23 18:00:00,
2013-11-23 13:06:00,42.8,29.1,30.44,SW,230,4.0,13.0,58,0.00,,,0.01,513.0,meteohub,2013-11-23 18:06:00,
2013-11-23 13:11:00,43.3,25.9,30.44,West,270,7.0,13.0,50,0.00,,,0.01,494.0,meteohub,2013-11-23 18:11:00,
2013-11-23 13:16:00,42.4,24.1,30.45,West,278,13.0,14.0,48,0.00,,,0.01,323.0,meteohub,2013-11-23 18:16:00,
2013-11-23 13:21:00,42.3,25.3,30.44,West,263,4.0,14.0,51,0.00,,,0.01,276.0,meteohub,2013-11-23 18:21:00,
2013-11-23 13:26:00,42.3,23.9,30.44,West,265,9.0,14.0,48,0.00,,,0.01,265.0,meteohub,2013-11-23 18:26:00,
2013-11-23 13:31:00,42.4,23.7,30.43,WNW,291,7.0,14.0,47,0.00,,,0.01,448.0,meteohub,2013-11-23 18:31:00,
2013-11-23 13:36:00,43.3,20.7,30.43,West,263,5.0,14.0,40,0.00,,,0.01,522.0,meteohub,2013-11-23 18:36:00,
2013-11-23 13:41:00,43.9,17.2,30.43,NW,308,10.0,14.0,34,0.00,,,0.01,497.0,meteohub,2013-11-23 18:41:00,
2013-11-23 13:46:00,44.4,17.8,30.42,West,273,9.0,16.0,34,0.00,,,0.01,490.0,meteohub,2013-11-23 18:46:00,
2013-11-23 13:51:00,45.0,19.6,30.43,WNW,285,13.0,16.0,36,0.00,,,0.01,503.0,meteohub,2013-11-23 18:51:00,
2013-11-23 13:56:00,44.2,14.7,30.43,WNW,298,8.0,17.0,30,0.00,,,0.01,534.0,meteohub,2013-11-23 18:56:00,
2013-11-23 14:02:00,44.4,15.6,30.43,WNW,287,11.0,18.0,31,0.00,,,0.01,547.0,meteohub,2013-11-23 19:02:00,
2013-11-23 14:07:00,44.1,16.2,30.43,NW,323,8.0,18.0,32,0.00,,,0.01,315.0,meteohub,2013-11-23 19:07:00,
2013-11-23 14:12:00,43.5,15.6,30.43,NNE,25,6.0,16.0,32,0.00,,,0.01,352.0,meteohub,2013-11-23 19:12:00,
2013-11-23 14:17:00,43.0,13.6,30.43,NW,310,6.0,16.0,30,0.00,,,0.01,288.0,meteohub,2013-11-23 19:17:00,
2013-11-23 14:22:00,42.4,16.0,30.43,WNW,290,7.0,15.0,34,0.00,,,0.01,413.0,meteohub,2013-11-23 19:22:00,
2013-11-23 14:27:00,43.3,18.1,30.43,NNW,334,8.0,15.0,36,0.00,,,0.01,399.0,meteohub,2013-11-23 19:27:00,
2013-11-23 14:32:00,43.3,17.6,30.43,NW,316,12.0,16.0,35,0.00,,,0.01,397.0,meteohub,2013-11-23 19:32:00,
2013-11-23 14:37:00,43.7,19.0,30.43,West,265,13.0,16.0,37,0.00,,,0.01,404.0,meteohub,2013-11-23 19:37:00,
2013-11-23 14:42:00,42.8,17.1,30.43,WNW,300,16.0,16.0,35,0.00,,,0.01,396.0,meteohub,2013-11-23 19:42:00,
2013-11-23 14:47:00,42.1,17.6,30.43,West,259,14.0,21.0,37,0.00,,,0.01,366.0,meteohub,2013-11-23 19:47:00,
2013-11-23 14:52:00,42.6,19.9,30.44,WNW,300,11.0,21.0,40,0.00,,,0.01,367.0,meteohub,2013-11-23 19:52:00,
2013-11-23 14:57:00,42.6,18.9,30.45,WNW,291,9.0,18.0,38,0.00,,,0.01,353.0,meteohub,2013-11-23 19:57:00,
2013-11-23 15:02:00,42.4,18.7,30.44,West,276,11.0,16.0,38,0.00,,,0.01,410.0,meteohub,2013-11-23 20:02:00,
2013-11-23 15:07:00,42.6,19.9,30.45,West,263,7.0,16.0,40,0.00,,,0.01,397.0,meteohub,2013-11-23 20:07:00,
2013-11-23 15:12:00,43.2,19.2,30.45,WNW,297,9.0,16.0,38,0.00,,,0.01,378.0,meteohub,2013-11-23 20:12:00,
2013-11-23 15:17:00,43.0,19.8,30.44,West,267,12.0,17.0,39,0.00,,,0.01,352.0,meteohub,2013-11-23 20:17:00,
2013-11-23 15:22:00,42.4,19.2,30.45,NNW,329,5.0,17.0,39,0.00,,,0.01,146.0,meteohub,2013-11-23 20:22:00,
2013-11-23 15:27:00,41.4,19.9,30.46,WNW,296,8.0,18.0,42,0.00,,,0.01,98.0,meteohub,2013-11-23 20:27:00,
2013-11-23 15:32:00,41.2,20.8,30.45,WNW,303,14.0,18.0,44,0.00,,,0.01,267.0,meteohub,2013-11-23 20:32:00,
2013-11-23 15:37:00,41.7,21.9,30.45,NW,323,13.0,17.0,45,0.00,,,0.01,216.0,meteohub,2013-11-23 20:37:00,
2013-11-23 15:42:00,41.2,20.8,30.46,NNE,13,8.0,17.0,44,0.00,,,0.01,229.0,meteohub,2013-11-23 20:42:00,
2013-11-23 15:47:00,40.3,20.1,30.46,NNW,345,8.0,16.0,44,0.00,,,0.01,209.0,meteohub,2013-11-23 20:47:00,
2013-11-23 15:52:00,39.4,19.8,30.47,WNW,294,6.0,17.0,45,0.00,,,0.01,195.0,meteohub,2013-11-23 20:52:00,
2013-11-23 15:57:00,39.4,20.3,30.48,WNW,299,5.0,17.0,46,0.00,,,0.01,171.0,meteohub,2013-11-23 20:57:00,
2013-11-23 16:02:00,39.0,19.9,30.48,North,356,10.0,17.0,46,0.00,,,0.01,162.0,meteohub,2013-11-23 21:02:00,
2013-11-23 16:07:00,38.7,20.7,30.48,WNW,295,8.0,15.0,48,0.00,,,0.01,146.0,meteohub,2013-11-23 21:07:00,
2013-11-23 16:12:00,38.3,20.8,30.49,North,0,3.0,15.0,49,0.00,,,0.01,128.0,meteohub,2013-11-23 21:12:00,
2013-11-23 16:17:00,37.8,20.8,30.49,NW,305,11.0,15.0,50,0.00,,,0.01,113.0,meteohub,2013-11-23 21:17:00,
2013-11-23 16:22:00,37.0,21.0,30.50,West,270,7.0,21.0,52,0.00,,,0.01,98.0,meteohub,2013-11-23 21:22:00,
2013-11-23 16:27:00,36.9,21.4,30.50,NNW,346,9.0,21.0,53,0.00,,,0.01,83.0,meteohub,2013-11-23 21:27:00,
2013-11-23 16:33:00,36.5,21.4,30.50,North,354,12.0,21.0,54,0.00,,,0.01,72.0,meteohub,2013-11-23 21:33:00,
2013-11-23 16:38:00,36.0,21.7,30.51,NNW,345,6.0,18.0,56,0.00,,,0.01,65.0,meteohub,2013-11-23 21:38:00,
2013-11-23 16:43:00,35.6,21.9,30.51,NNW,342,10.0,18.0,57,0.00,,,0.01,42.0,meteohub,2013-11-23 21:43:00,
2013-11-23 16:48:00,35.4,22.1,30.52,NNE,12,12.0,17.0,58,0.00,,,0.01,30.0,meteohub,2013-11-23 21:48:00,
2013-11-23 16:53:00,34.9,21.6,30.52,North,0,16.0,17.0,58,0.00,,,0.01,21.0,meteohub,2013-11-23 21:53:00,
2013-11-23 16:58:00,34.3,21.0,30.52,North,356,8.0,17.0,58,0.00,,,0.01,16.0,meteohub,2013-11-23 21:58:00,
2013-11-23 17:03:00,34.0,20.3,30.53,North,9,7.0,17.0,57,0.00,,,0.01,14.0,meteohub,2013-11-23 22:03:00,
2013-11-23 17:08:00,33.6,19.9,30.53,North,358,3.0,18.0,57,0.00,,,0.01,19.0,meteohub,2013-11-23 22:08:00,
2013-11-23 17:13:00,33.3,20.1,30.53,NW,312,7.0,18.0,58,0.00,,,0.01,11.0,meteohub,2013-11-23 22:13:00,
2013-11-23 17:18:00,33.1,20.3,30.53,NNW,342,4.0,17.0,59,0.00,,,0.01,5.0,meteohub,2013-11-23 22:18:00,
2013-11-23 17:24:00,32.9,20.5,30.54,NNW,342,5.0,16.0,60,0.00,,,0.01,0.0,meteohub,2013-11-23 22:24:00,
2013-11-23 17:29:00,32.7,21.2,30.54,NW,304,6.0,16.0,62,0.00,,,0.01,0.0,meteohub,2013-11-23 22:29:00,
2013-11-23 17:34:00,32.7,21.6,30.54,NNW,333,4.0,14.0,63,0.00,,,0.01,0.0,meteohub,2013-11-23 22:34:00,
2013-11-23 17:39:00,32.7,21.6,30.54,North,2,5.0,14.0,63,0.00,,,0.01,0.0,meteohub,2013-11-23 22:39:00,
2013-11-23 17:44:00,32.7,21.2,30.54,NW,311,9.0,11.0,62,0.00,,,0.01,0.0,meteohub,2013-11-23 22:44:00,
2013-11-23 17:49:00,32.4,21.2,30.54,WNW,283,8.0,16.0,63,0.00,,,0.01,0.0,meteohub,2013-11-23 22:49:00,
2013-11-23 17:54:00,32.2,21.0,30.55,NNW,328,3.0,16.0,63,0.00,,,0.01,0.0,meteohub,2013-11-23 22:54:00,
2013-11-23 17:59:00,32.0,20.8,30.55,West,273,3.0,16.0,63,0.00,,,0.01,0.0,meteohub,2013-11-23 22:59:00,
2013-11-23 18:04:00,31.6,20.5,30.56,North,9,3.0,14.0,63,0.00,,,0.01,0.0,meteohub,2013-11-23 23:04:00,
2013-11-23 18:09:00,31.6,20.8,30.56,North,7,2.0,14.0,64,0.00,,,0.01,0.0,meteohub,2013-11-23 23:09:00,
2013-11-23 18:10:00,31.6,20.8,30.56,NW,312,3.0,14.0,64,0.00,,,0.01,0.0,meteohub,2013-11-23 23:10:00,
2013-11-23 18:15:00,31.3,20.5,30.56,WNW,300,9.0,13.0,64,0.00,,,0.01,0.0,meteohub,2013-11-23 23:15:00,
2013-11-23 18:20:00,30.9,19.0,30.57,NNW,328,7.0,20.0,61,0.00,,,0.01,0.0,meteohub,2013-11-23 23:20:00,
2013-11-23 18:25:00,30.6,18.7,30.56,NW,308,5.0,20.0,61,0.00,,,0.01,0.0,meteohub,2013-11-23 23:25:00,
2013-11-23 18:30:00,30.4,18.5,30.57,NNW,329,11.0,20.0,61,0.00,,,0.01,0.0,meteohub,2013-11-23 23:30:00,
2013-11-23 18:35:00,30.0,18.1,30.57,North,0,7.0,14.0,61,0.00,,,0.01,0.0,meteohub,2013-11-23 23:35:00,
2013-11-23 18:41:00,29.8,18.5,30.58,NNW,345,4.0,13.0,62,0.00,,,0.01,0.0,meteohub,2013-11-23 23:41:00,
2013-11-23 18:46:00,29.7,18.3,30.58,North,0,8.0,14.0,62,0.00,,,0.01,0.0,meteohub,2013-11-23 23:46:00,
2013-11-23 18:51:00,29.7,17.4,30.58,North,352,6.0,18.0,60,0.00,,,0.01,0.0,meteohub,2013-11-23 23:51:00,
2013-11-23 18:56:00,29.5,17.2,30.58,NNW,342,7.0,18.0,60,0.00,,,0.01,0.0,meteohub,2013-11-23 23:56:00,
2013-11-23 19:01:00,29.5,17.2,30.58,NNE,13,12.0,18.0,60,0.00,,,0.01,0.0,meteohub,2013-11-24 00:01:00,
2013-11-23 19:06:00,29.3,17.1,30.59,North,350,4.0,13.0,60,0.00,,,0.00,0.0,meteohub,2013-11-24 00:06:00,
2013-11-23 19:11:00,29.1,16.9,30.60,WNW,292,3.0,13.0,60,0.00,,,0.00,0.0,meteohub,2013-11-24 00:11:00,
2013-11-23 19:16:00,28.9,16.9,30.60,NNW,333,10.0,13.0,60,0.00,,,0.00,0.0,meteohub,2013-11-24 00:16:00,
2013-11-23 19:21:00,28.9,16.9,30.60,North,353,7.0,12.0,60,0.00,,,0.00,0.0,meteohub,2013-11-24 00:21:00,
2013-11-23 19:26:00,28.9,16.9,30.60,NNW,345,6.0,12.0,60,0.00,,,0.00,0.0,meteohub,2013-11-24 00:26:00,
2013-11-23 19:32:00,28.9,16.9,30.60,North,354,6.0,13.0,60,0.00,,,0.00,0.0,meteohub,2013-11-24 00:32:00,
2013-11-23 19:37:00,28.9,16.9,30.60,NNW,338,4.0,14.0,60,0.00,,,0.00,0.0,meteohub,2013-11-24 00:37:00,
2013-11-23 19:42:00,28.8,16.7,30.61,North,352,5.0,14.0,60,0.00,,,0.00,0.0,meteohub,2013-11-24 00:42:00,
2013-11-23 19:47:00,28.4,16.3,30.61,NNW,346,8.0,16.0,60,0.00,,,0.00,0.0,meteohub,2013-11-24 00:47:00,
2013-11-23 19:52:00,28.0,16.0,30.61,NNW,336,5.0,16.0,60,0.00,,,0.00,0.0,meteohub,2013-11-24 00:52:00,
2013-11-23 19:57:00,27.9,16.2,30.61,North,359,7.0,16.0,61,0.00,,,0.00,0.0,meteohub,2013-11-24 00:57:00,
2013-11-23 20:02:00,27.7,16.3,30.62,NW,326,9.0,13.0,62,0.00,,,0.00,0.0,meteohub,2013-11-24 01:02:00,
2013-11-23 20:07:00,27.3,15.6,30.62,NW,306,7.0,14.0,61,0.00,,,0.00,0.0,meteohub,2013-11-24 01:07:00,
2013-11-23 20:12:00,27.1,15.8,30.62,NW,325,8.0,15.0,62,0.00,,,0.00,0.0,meteohub,2013-11-24 01:12:00,
2013-11-23 20:18:00,27.1,15.8,30.62,NNE,15,9.0,15.0,62,0.00,,,0.00,0.0,meteohub,2013-11-24 01:18:00,
2013-11-23 20:23:00,27.0,15.6,30.63,NW,315,4.0,15.0,62,0.00,,,0.00,0.0,meteohub,2013-11-24 01:23:00,
2013-11-23 20:28:00,27.0,15.6,30.63,NW,323,8.0,15.0,62,0.00,,,0.00,0.0,meteohub,2013-11-24 01:28:00,
2013-11-23 20:33:00,26.8,15.8,30.63,NW,307,7.0,15.0,63,0.00,,,0.00,0.0,meteohub,2013-11-24 01:33:00,
2013-11-23 20:38:00,26.6,15.3,30.64,NNW,337,5.0,15.0,62,0.00,,,0.00,0.0,meteohub,2013-11-24 01:38:00,
2013-11-23 20:43:00,26.4,15.6,30.64,NNW,343,4.0,15.0,63,0.00,,,0.00,0.0,meteohub,2013-11-24 01:43:00,
2013-11-23 20:48:00,26.2,15.4,30.64,NNE,13,4.0,14.0,63,0.00,,,0.00,0.0,meteohub,2013-11-24 01:48:00,
2013-11-23 20:53:00,26.2,15.4,30.64,West,279,7.0,14.0,63,0.00,,,0.00,0.0,meteohub,2013-11-24 01:53:00,
2013-11-23 20:59:00,26.2,15.4,30.64,NNW,331,5.0,11.0,63,0.00,,,0.00,0.0,meteohub,2013-11-24 01:59:00,
2013-11-23 21:04:00,26.1,15.3,30.64,NW,323,2.0,10.0,63,0.00,,,0.00,0.0,meteohub,2013-11-24 02:04:00,
2013-11-23 21:09:00,26.1,15.3,30.65,NNW,329,4.0,10.0,63,0.00,,,0.00,0.0,meteohub,2013-11-24 02:09:00,
2013-11-23 21:14:00,26.1,15.3,30.65,North,9,6.0,13.0,63,0.00,,,0.00,0.0,meteohub,2013-11-24 02:14:00,
2013-11-23 21:19:00,26.1,15.3,30.65,NW,308,7.0,13.0,63,0.00,,,0.00,0.0,meteohub,2013-11-24 02:19:00,
2013-11-23 21:24:00,26.1,15.6,30.65,NNW,337,4.0,12.0,64,0.00,,,0.00,0.0,meteohub,2013-11-24 02:24:00,
2013-11-23 21:29:00,25.9,15.4,30.66,NNW,328,4.0,11.0,64,0.00,,,0.00,0.0,meteohub,2013-11-24 02:29:00,
2013-11-23 21:35:00,25.9,15.1,30.66,North,359,6.0,14.0,63,0.00,,,0.00,0.0,meteohub,2013-11-24 02:35:00,
2013-11-23 21:40:00,25.9,14.7,30.66,NNW,333,9.0,16.0,62,0.00,,,0.00,0.0,meteohub,2013-11-24 02:40:00,
2013-11-23 21:45:00,25.9,14.7,30.66,NW,310,6.0,16.0,62,0.00,,,0.00,0.0,meteohub,2013-11-24 02:45:00,
2013-11-23 21:50:00,25.5,14.7,30.66,NNW,331,5.0,17.0,63,0.00,,,0.00,0.0,meteohub,2013-11-24 02:50:00,
2013-11-23 21:55:00,25.3,14.5,30.66,North,3,4.0,17.0,63,0.00,,,0.00,0.0,meteohub,2013-11-24 02:55:00,
2013-11-23 22:00:00,25.2,14.7,30.66,NNW,341,3.0,15.0,64,0.00,,,0.00,0.0,meteohub,2013-11-24 03:00:00,
2013-11-23 22:05:00,24.8,14.7,30.66,NW,326,3.0,11.0,65,0.00,,,0.00,0.0,meteohub,2013-11-24 03:05:00,
2013-11-23 22:10:00,24.6,14.5,30.67,North,3,3.0,10.0,65,0.00,,,0.00,0.0,meteohub,2013-11-24 03:10:00,
2013-11-23 22:15:00,24.4,14.7,30.67,NNW,345,4.0,12.0,66,0.00,,,0.00,0.0,meteohub,2013-11-24 03:15:00,
2013-11-23 22:21:00,24.4,14.7,30.67,NNW,342,4.0,12.0,66,0.00,,,0.00,0.0,meteohub,2013-11-24 03:21:00,
2013-11-23 22:26:00,24.3,14.9,30.68,North,356,2.0,14.0,67,0.00,,,0.00,0.0,meteohub,2013-11-24 03:26:00,
2013-11-23 22:31:00,24.3,14.9,30.68,WNW,298,3.0,14.0,67,0.00,,,0.00,0.0,meteohub,2013-11-24 03:31:00,
2013-11-23 22:36:00,24.1,15.1,30.68,WNW,291,3.0,14.0,68,0.00,,,0.00,0.0,meteohub,2013-11-24 03:36:00,
2013-11-23 22:41:00,24.1,15.1,30.68,NNW,343,4.0,13.0,68,0.00,,,0.00,0.0,meteohub,2013-11-24 03:41:00,
2013-11-23 22:46:00,23.9,15.3,30.69,NNW,342,4.0,13.0,69,0.00,,,0.00,0.0,meteohub,2013-11-24 03:46:00,
2013-11-23 22:51:00,23.7,15.1,30.69,NW,317,4.0,13.0,69,0.00,,,0.00,0.0,meteohub,2013-11-24 03:51:00,
2013-11-23 22:56:00,23.5,15.3,30.69,NNW,347,1.0,9.0,70,0.00,,,0.00,0.0,meteohub,2013-11-24 03:56:00,
2013-11-23 23:01:00,23.5,15.4,30.69,NNE,12,2.0,9.0,71,0.00,,,0.00,0.0,meteohub,2013-11-24 04:01:00,
2013-11-23 23:07:00,23.5,15.4,30.69,NW,325,4.0,10.0,71,0.00,,,0.00,0.0,meteohub,2013-11-24 04:07:00,
2013-11-23 23:12:00,23.4,15.6,30.69,North,356,9.0,10.0,72,0.00,,,0.00,0.0,meteohub,2013-11-24 04:12:00,
2013-11-23 23:17:00,23.4,16.0,30.69,NW,322,4.0,10.0,73,0.00,,,0.00,0.0,meteohub,2013-11-24 04:17:00,
2013-11-23 23:22:00,23.4,16.3,30.69,NNW,335,9.0,10.0,74,0.00,,,0.00,0.0,meteohub,2013-11-24 04:22:00,
2013-11-23 23:27:00,23.2,16.7,30.69,NNW,346,3.0,10.0,76,0.00,,,0.00,0.0,meteohub,2013-11-24 04:27:00,
2013-11-23 23:32:00,23.2,17.1,30.69,North,6,2.0,10.0,77,0.00,,,0.00,0.0,meteohub,2013-11-24 04:32:00,
2013-11-23 23:37:00,23.0,17.2,30.70,NW,323,4.0,10.0,78,0.00,,,0.00,0.0,meteohub,2013-11-24 04:37:00,
2013-11-23 23:42:00,23.0,17.4,30.70,NNW,348,4.0,11.0,79,0.00,,,0.00,0.0,meteohub,2013-11-24 04:42:00,
2013-11-23 23:47:00,22.8,17.1,30.70,NNE,26,7.0,11.0,78,0.00,,,0.00,0.0,meteohub,2013-11-24 04:47:00,
2013-11-23 23:52:00,23.0,16.9,30.70,NE,36,5.0,11.0,77,0.00,,,0.00,0.0,meteohub,2013-11-24 04:52:00,
2013-11-23 23:57:00,23.0,16.5,30.70,North,354,3.0,12.0,76,0.00,,,0.00,0.0,meteohub,2013-11-24 04:57:00,